| time (UTC) | temp F | wind direction | speed MPH | gust MPH | rain 1hr in | rain 24hr in | rain mn in | humidity % | barometer mb |
| 20260505121605 | 65 | 180 | 0.0 | 0.0 | 0.00 | 0.00 | 0.00 | 68 | 1013.8 |
| 20260505121102 | 66 | 148 | 0.0 | 0.0 | 0.00 | 0.00 | 0.00 | 68 | 1013.8 |
| 20260505120558 | 65 | 148 | 0.0 | 0.0 | 0.00 | 0.00 | 0.00 | 68 | 1013.8 |
| 20260505120054 | 64 | 116 | 0.0 | 0.0 | 0.00 | 0.00 | 0.00 | 70 | 1013.8 |
| 20260505115548 | 63 | 66 | 0.0 | 0.0 | 0.00 | 0.00 | 0.00 | 72 | 1013.8 |
| 20260505115046 | 62 | 66 | 0.0 | 0.0 | 0.00 | 0.00 | 0.00 | 73 | 1013.8 |
| 20260505114543 | 61 | 66 | 0.0 | 0.0 | 0.00 | 0.00 | 0.00 | 73 | 1013.8 |
| 20260505114039 | 60 | 185 | 0.0 | 0.0 | 0.00 | 0.00 | 0.00 | 75 | 1013.8 |
| 20260505113536 | 60 | 200 | 0.0 | 0.0 | 0.00 | 0.00 | 0.00 | 74 | 1013.8 |
| 20260505113032 | 60 | 204 | 0.0 | 0.0 | 0.00 | 0.00 | 0.00 | 76 | 1014.1 |
| 20260505112528 | 60 | 204 | 0.0 | 0.0 | 0.00 | 0.00 | 0.00 | 78 | 1014.1 |
| 20260505112027 | 60 | 132 | 0.0 | 0.0 | 0.00 | 0.00 | 0.00 | 76 | 1014.1 |
| 20260505111526 | 60 | 258 | 0.0 | 0.0 | 0.00 | 0.00 | 0.00 | 73 | 1013.8 |
| 20260505111023 | 60 | 246 | 0.0 | 0.0 | 0.00 | 0.00 | 0.00 | 77 | 1013.8 |
| 20260505110519 | 60 | 264 | 2.0 | 2.0 | 0.00 | 0.00 | 0.00 | 73 | 1013.8 |
| 20260505101952 | 58 | 174 | 0.0 | 0.0 | 0.00 | 0.00 | 0.00 | 76 | 1012.8 |
| 20260505101450 | 58 | 216 | 0.0 | 0.0 | 0.00 | 0.00 | 0.00 | 75 | 1012.4 |
| 20260505100946 | 59 | 222 | 0.0 | 0.0 | 0.00 | 0.00 | 0.00 | 75 | 1012.4 |
| 20260505100443 | 59 | 206 | 0.0 | 0.0 | 0.00 | 0.00 | 0.00 | 74 | 1012.4 |
| 20260505095939 | 59 | 257 | 0.0 | 0.0 | 0.00 | 0.00 | 0.00 | 73 | 1012.4 |
| 20260505095436 | 59 | 182 | 0.0 | 0.0 | 0.00 | 0.00 | 0.00 | 72 | 1012.4 |
| 20260505094932 | 59 | 258 | 1.0 | 1.0 | 0.00 | 0.00 | 0.00 | 73 | 1012.4 |
| 20260505094429 | 60 | 225 | 0.0 | 0.0 | 0.00 | 0.00 | 0.00 | 72 | 1012.4 |
| 20260505093925 | 60 | 199 | 0.0 | 0.0 | 0.00 | 0.00 | 0.00 | 73 | 1012.4 |
| 20260505093422 | 60 | 218 | 0.0 | 0.0 | 0.00 | 0.00 | 0.00 | 72 | 1012.4 |
| 20260505092919 | 60 | 294 | 0.0 | 0.0 | 0.00 | 0.00 | 0.00 | 71 | 1012.1 |
| 20260505092417 | 61 | 230 | 1.0 | 1.0 | 0.00 | 0.00 | 0.00 | 70 | 1012.1 |
| 20260505091915 | 61 | 12 | 0.0 | 0.0 | 0.00 | 0.00 | 0.00 | 70 | 1012.1 |
| 20260505091412 | 61 | 192 | 0.0 | 0.0 | 0.00 | 0.00 | 0.00 | 69 | 1012.1 |
| 20260505090910 | 61 | 211 | 0.0 | 0.0 | 0.00 | 0.00 | 0.00 | 70 | 1012.1 |
| 20260505090408 | 61 | 204 | 0.0 | 0.0 | 0.00 | 0.00 | 0.00 | 69 | 1012.1 |
| 20260505085905 | 61 | 216 | 2.0 | 2.0 | 0.00 | 0.00 | 0.00 | 67 | 1012.1 |
| 20260505085403 | 62 | 194 | 2.0 | 2.0 | 0.00 | 0.00 | 0.00 | 66 | 1012.1 |
| 20260505084901 | 62 | 204 | 1.0 | 1.0 | 0.00 | 0.00 | 0.00 | 66 | 1012.1 |
| 20260505084359 | 62 | 213 | 0.0 | 0.0 | 0.00 | 0.00 | 0.00 | 66 | 1012.1 |
| 20260505083856 | 62 | 166 | 2.0 | 2.0 | 0.00 | 0.00 | 0.00 | 67 | 1012.1 |
| 20260505083354 | 62 | 222 | 2.0 | 2.0 | 0.00 | 0.00 | 0.00 | 66 | 1012.1 |
| 20260505082850 | 62 | 216 | 2.0 | 2.0 | 0.00 | 0.00 | 0.00 | 65 | 1011.3 |
| 20260505082346 | 63 | 216 | 1.0 | 1.0 | 0.00 | 0.00 | 0.00 | 64 | 1011.3 |
| 20260505081843 | 63 | 228 | 2.0 | 2.0 | 0.00 | 0.00 | 0.00 | 65 | 1011.3 |
| 20260505081339 | 63 | 151 | 3.0 | 3.0 | 0.00 | 0.00 | 0.00 | 66 | 1011.3 |
| 20260505080836 | 63 | 204 | 2.0 | 2.0 | 0.00 | 0.00 | 0.00 | 65 | 1011.3 |
| 20260505080332 | 63 | 228 | 2.0 | 2.0 | 0.00 | 0.00 | 0.00 | 64 | 1011.3 |
| 20260505075827 | 63 | 204 | 2.0 | 2.0 | 0.00 | 0.00 | 0.00 | 64 | 1011.6 |
| 20260505075325 | 63 | 210 | 0.0 | 0.0 | 0.00 | 0.00 | 0.00 | 65 | 1011.6 |
| 20260505074822 | 62 | 222 | 2.0 | 2.0 | 0.00 | 0.00 | 0.00 | 64 | 1011.6 |
| 20260505074319 | 62 | 184 | 1.0 | 1.0 | 0.00 | 0.00 | 0.00 | 69 | 1011.6 |
| 20260505073816 | 62 | 228 | 1.0 | 1.0 | 0.00 | 0.00 | 0.00 | 66 | 1011.6 |
| 20260505073314 | 62 | 234 | 2.0 | 2.0 | 0.00 | 0.00 | 0.00 | 67 | 1011.6 |
| 20260505072811 | 62 | 234 | 2.0 | 2.0 | 0.00 | 0.00 | 0.00 | 68 | 1011.3 |
| 20260505072307 | 63 | 222 | 2.0 | 2.0 | 0.00 | 0.00 | 0.00 | 67 | 1011.3 |
| 20260505071803 | 63 | 306 | 2.0 | 2.0 | 0.00 | 0.00 | 0.00 | 67 | 1011.3 |
| 20260505071300 | 63 | 212 | 2.0 | 2.0 | 0.00 | 0.00 | 0.00 | 65 | 1011.3 |
| 20260505070758 | 63 | 240 | 2.0 | 2.0 | 0.00 | 0.00 | 0.00 | 64 | 1011.3 |
| 20260505070254 | 63 | 228 | 2.0 | 2.0 | 0.00 | 0.00 | 0.00 | 65 | 1011.3 |
| 20260505065749 | 63 | 240 | 2.0 | 2.0 | 0.00 | 0.00 | 0.00 | 64 | 1011.0 |
| 20260505065246 | 63 | 210 | 2.0 | 2.0 | 0.00 | 0.00 | 0.00 | 65 | 1011.0 |
| 20260505064743 | 63 | 192 | 0.0 | 0.0 | 0.00 | 0.00 | 0.00 | 65 | 1011.0 |
| 20260505064241 | 63 | 116 | 2.0 | 2.0 | 0.00 | 0.00 | 0.00 | 65 | 1011.3 |
| 20260505063738 | 63 | 240 | 2.0 | 2.0 | 0.00 | 0.00 | 0.00 | 65 | 1011.3 |
| 20260505063234 | 63 | 264 | 1.0 | 1.0 | 0.00 | 0.00 | 0.00 | 65 | 1011.3 |
| 20260505062731 | 63 | 334 | 0.0 | 0.0 | 0.00 | 0.00 | 0.00 | 68 | 1011.3 |
| 20260505062229 | 63 | 275 | 2.0 | 2.0 | 0.00 | 0.00 | 0.00 | 66 | 1011.3 |
| 20260505061725 | 63 | 210 | 2.0 | 2.0 | 0.00 | 0.00 | 0.00 | 66 | 1011.3 |
| 20260505061224 | 63 | 234 | 2.0 | 2.0 | 0.00 | 0.00 | 0.00 | 65 | 1011.3 |
| 20260505060720 | 63 | 210 | 2.0 | 2.0 | 0.00 | 0.00 | 0.00 | 67 | 1011.3 |
| 20260505060217 | 62 | 222 | 2.0 | 2.0 | 0.00 | 0.00 | 0.00 | 68 | 1011.3 |
| 20260505055713 | 62 | 212 | 2.0 | 2.0 | 0.00 | 0.00 | 0.00 | 66 | 1011.3 |
| 20260505055209 | 62 | 222 | 2.0 | 2.0 | 0.00 | 0.00 | 0.00 | 69 | 1011.3 |
| 20260505054707 | 62 | 244 | 2.0 | 2.0 | 0.00 | 0.00 | 0.00 | 69 | 1011.3 |
| 20260505054205 | 62 | 222 | 0.0 | 0.0 | 0.00 | 0.00 | 0.00 | 70 | 1011.6 |
| 20260505053703 | 61 | 282 | 2.0 | 2.0 | 0.00 | 0.00 | 0.00 | 69 | 1011.6 |
| 20260505053158 | 61 | 180 | 0.0 | 0.0 | 0.00 | 0.00 | 0.00 | 73 | 1011.6 |
| 20260505052656 | 62 | 246 | 0.0 | 0.0 | 0.00 | 0.00 | 0.00 | 73 | 1011.6 |
| 20260505052153 | 62 | 235 | 0.0 | 0.0 | 0.00 | 0.00 | 0.00 | 70 | 1011.6 |
| 20260505051650 | 62 | 212 | 0.0 | 0.0 | 0.00 | 0.00 | 0.00 | 72 | 1011.6 |
| 20260505051148 | 62 | 228 | 0.0 | 0.0 | 0.00 | 0.00 | 0.00 | 71 | 1011.6 |
| 20260505050645 | 62 | 234 | 2.0 | 2.0 | 0.00 | 0.00 | 0.00 | 71 | 1011.6 |
| 20260505050143 | 62 | 264 | 0.0 | 0.0 | 0.00 | 0.00 | 0.00 | 71 | 1011.6 |
| 20260505041613 | 60 | 228 | 0.0 | 0.0 | 0.00 | 0.00 | 0.00 | 74 | 1011.6 |
| 20260505041110 | 60 | 234 | 0.0 | 0.0 | 0.00 | 0.00 | 0.00 | 77 | 1011.6 |
| 20260505040608 | 60 | 252 | 0.0 | 0.0 | 0.00 | 0.00 | 0.00 | 77 | 1011.6 |
| 20260505040105 | 60 | 246 | 0.0 | 0.0 | 0.00 | 0.00 | 0.00 | 74 | 1011.3 |
| 20260505035601 | 60 | 240 | 0.0 | 0.0 | 0.00 | 0.39 | 0.39 | 76 | 1011.3 |
| 20260505035057 | 59 | 222 | 0.0 | 0.0 | 0.00 | 0.39 | 0.39 | 77 | 1011.3 |
| 20260505034554 | 59 | 212 | 0.0 | 0.0 | 0.00 | 0.39 | 0.39 | 79 | 1011.3 |
| 20260505034051 | 59 | 269 | 0.0 | 0.0 | 0.00 | 0.39 | 0.39 | 77 | 1011.3 |
| 20260505033548 | 60 | 288 | 0.0 | 0.0 | 0.00 | 0.39 | 0.39 | 78 | 1011.3 |
| 20260505033046 | 59 | 246 | 0.0 | 0.0 | 0.00 | 0.39 | 0.39 | 77 | 1011.3 |
| 20260505032544 | 59 | 306 | 0.0 | 0.0 | 0.00 | 0.39 | 0.39 | 76 | 1011.3 |
| 20260505032040 | 60 | 306 | 0.0 | 0.0 | 0.00 | 0.39 | 0.39 | 76 | 1011.3 |
| 20260505031537 | 60 | 306 | 0.0 | 0.0 | 0.00 | 0.39 | 0.39 | 76 | 1011.3 |
| 20260505031033 | 61 | 222 | 0.0 | 0.0 | 0.00 | 0.39 | 0.39 | 72 | 1011.3 |
| 20260505030530 | 62 | 234 | 0.0 | 0.0 | 0.00 | 0.39 | 0.39 | 71 | 1011.3 |
| 20260505030026 | 62 | 234 | 0.0 | 0.0 | 0.00 | 0.39 | 0.39 | 70 | 1010.6 |
| 20260505025522 | 62 | 250 | 0.0 | 0.0 | 0.00 | 0.39 | 0.39 | 73 | 1010.6 |
| 20260505025022 | 62 | 258 | 0.0 | 0.0 | 0.00 | 0.39 | 0.39 | 69 | 1010.6 |
| 20260505024518 | 63 | 240 | 0.0 | 0.0 | 0.00 | 0.39 | 0.39 | 68 | 1010.3 |
| 20260505024015 | 63 | 228 | 0.0 | 0.0 | 0.00 | 0.39 | 0.39 | 67 | 1010.3 |
| 20260505023512 | 64 | 234 | 0.0 | 0.0 | 0.00 | 0.39 | 0.39 | 66 | 1010.3 |
| 20260505023010 | 63 | 270 | 0.0 | 0.0 | 0.00 | 0.39 | 0.39 | 67 | 1010.3 |
| 20260505022507 | 63 | 258 | 0.0 | 0.0 | 0.00 | 0.39 | 0.39 | 67 | 1010.3 |
| 20260505022004 | 63 | 246 | 0.0 | 0.0 | 0.00 | 0.39 | 0.39 | 69 | 1010.3 |
| 20260505021501 | 62 | 60 | 0.0 | 0.0 | 0.00 | 0.39 | 0.39 | 69 | 1010.3 |
| 20260505020956 | 62 | 240 | 0.0 | 0.0 | 0.00 | 0.39 | 0.39 | 72 | 1010.3 |
| 20260505020452 | 62 | 43 | 0.0 | 0.0 | 0.00 | 0.39 | 0.39 | 75 | 1010.3 |
| 20260505015949 | 62 | 277 | 0.0 | 0.0 | 0.00 | 0.39 | 0.39 | 73 | 1010.3 |
| 20260505015446 | 62 | 246 | 0.0 | 0.0 | 0.00 | 0.39 | 0.39 | 71 | 1010.3 |
| 20260505014943 | 62 | 206 | 0.0 | 0.0 | 0.00 | 0.39 | 0.39 | 73 | 1010.3 |
| 20260505014440 | 62 | 199 | 0.0 | 0.0 | 0.00 | 0.39 | 0.39 | 74 | 1010.3 |
| 20260505013937 | 63 | 222 | 0.0 | 0.0 | 0.00 | 0.39 | 0.39 | 72 | 1010.3 |
| 20260505013434 | 63 | 240 | 0.0 | 0.0 | 0.00 | 0.39 | 0.39 | 70 | 1010.3 |
| 20260505012932 | 63 | 228 | 0.0 | 0.0 | 0.00 | 0.39 | 0.39 | 70 | 1010.3 |
| 20260505012430 | 63 | 211 | 0.0 | 0.0 | 0.00 | 0.39 | 0.39 | 73 | 1010.3 |
| 20260505011926 | 63 | 213 | 0.0 | 0.0 | 0.00 | 0.39 | 0.39 | 72 | 1010.3 |
| 20260505011422 | 63 | 244 | 0.0 | 0.0 | 0.00 | 0.39 | 0.39 | 70 | 1010.3 |
| 20260505010919 | 64 | 228 | 0.0 | 0.0 | 0.00 | 0.39 | 0.39 | 69 | 1010.3 |
| 20260505010414 | 64 | 228 | 0.0 | 0.0 | 0.00 | 0.39 | 0.39 | 68 | 1010.3 |
| 20260505005911 | 65 | 228 | 0.0 | 0.0 | 0.00 | 0.39 | 0.39 | 67 | 1010.3 |
| 20260505005408 | 65 | 228 | 0.0 | 0.0 | 0.00 | 0.39 | 0.39 | 66 | 1010.3 |
| 20260505004905 | 66 | 228 | 0.0 | 0.0 | 0.00 | 0.39 | 0.39 | 65 | 1010.3 |
| 20260505004402 | 66 | 290 | 0.0 | 0.0 | 0.00 | 0.39 | 0.39 | 64 | 1009.9 |
| 20260505003859 | 67 | 216 | 0.0 | 0.0 | 0.00 | 0.39 | 0.39 | 63 | 1009.9 |
| 20260505003356 | 67 | 229 | 0.0 | 0.0 | 0.00 | 0.39 | 0.39 | 62 | 1009.9 |
| 20260505002852 | 67 | 252 | 0.0 | 0.0 | 0.00 | 0.39 | 0.39 | 64 | 1010.3 |
| 20260505002349 | 68 | 234 | 0.0 | 0.0 | 0.00 | 0.39 | 0.39 | 62 | 1010.3 |
| 20260505001847 | 68 | 284 | 0.0 | 0.0 | 0.00 | 0.39 | 0.39 | 64 | 1010.3 |
| 20260505001344 | 69 | 157 | 0.0 | 0.0 | 0.00 | 0.39 | 0.39 | 61 | 1010.3 |
| 20260505000841 | 70 | 210 | 0.0 | 0.0 | 0.00 | 0.39 | 0.39 | 60 | 1010.3 |
| 20260505000339 | 71 | 188 | 2.0 | 2.0 | 0.00 | 0.39 | 0.39 | 56 | 1010.3 |
| 20260504235835 | 71 | 216 | 2.0 | 2.0 | 0.00 | 0.39 | 0.39 | 55 | 1010.3 |
| 20260504235332 | 72 | 185 | 2.0 | 2.0 | 0.00 | 0.39 | 0.39 | 55 | 1010.3 |
| 20260504234829 | 72 | 284 | 2.0 | 2.0 | 0.00 | 0.39 | 0.39 | 56 | 1010.3 |
| 20260504234327 | 72 | 192 | 0.0 | 0.0 | 0.00 | 0.39 | 0.39 | 54 | 1010.6 |
| 20260504233823 | 72 | 198 | 2.0 | 2.0 | 0.00 | 0.39 | 0.39 | 54 | 1010.6 |
| 20260504233319 | 72 | 222 | 2.0 | 2.0 | 0.00 | 0.39 | 0.39 | 56 | 1010.6 |
| 20260504232815 | 72 | 185 | 2.0 | 2.0 | 0.00 | 0.39 | 0.39 | 55 | 1011.3 |
| 20260504232313 | 73 | 216 | 2.0 | 2.0 | 0.00 | 0.39 | 0.39 | 55 | 1011.3 |
| 20260504231810 | 73 | 179 | 0.0 | 0.0 | 0.00 | 0.39 | 0.39 | 54 | 1011.3 |
| 20260504231306 | 73 | 204 | 0.0 | 0.0 | 0.00 | 0.39 | 0.39 | 53 | 1011.3 |
| 20260504230802 | 74 | 210 | 2.0 | 2.0 | 0.00 | 0.39 | 0.39 | 51 | 1011.3 |
| 20260504230300 | 74 | 240 | 3.0 | 3.0 | 0.00 | 0.39 | 0.39 | 54 | 1011.3 |
| 20260504225759 | 74 | 228 | 2.0 | 2.0 | 0.00 | 0.39 | 0.39 | 53 | 1011.0 |
| 20260504225255 | 74 | 216 | 1.0 | 1.0 | 0.00 | 0.39 | 0.39 | 51 | 1011.0 |
| 20260504224752 | 74 | 217 | 0.0 | 0.0 | 0.00 | 0.39 | 0.39 | 53 | 1011.0 |
| 20260504224249 | 74 | 224 | 1.0 | 1.0 | 0.00 | 0.39 | 0.39 | 50 | 1011.3 |
| 20260504223745 | 73 | 192 | 2.0 | 2.0 | 0.00 | 0.39 | 0.39 | 52 | 1011.3 |
| 20260504223241 | 73 | 234 | 3.0 | 3.0 | 0.00 | 0.39 | 0.39 | 53 | 1011.3 |
| 20260504222738 | 74 | 192 | 2.0 | 2.0 | 0.00 | 0.39 | 0.39 | 51 | 1011.6 |
| 20260504222235 | 74 | 180 | 2.0 | 2.0 | 0.00 | 0.39 | 0.39 | 51 | 1011.6 |
| 20260504221733 | 75 | 222 | 1.0 | 1.0 | 0.00 | 0.39 | 0.39 | 49 | 1011.6 |
| 20260504221229 | 75 | 26 | 2.0 | 2.0 | 0.00 | 0.39 | 0.39 | 53 | 1011.6 |
| 20260504220726 | 75 | 312 | 2.0 | 2.0 | 0.00 | 0.39 | 0.39 | 51 | 1011.6 |
| 20260504220224 | 75 | 204 | 2.0 | 2.0 | 0.00 | 0.39 | 0.39 | 52 | 1011.6 |
| 20260504215720 | 75 | 173 | 2.0 | 2.0 | 0.00 | 0.39 | 0.39 | 51 | 1011.3 |
| 20260504215217 | 75 | 84 | 2.0 | 2.0 | 0.00 | 0.39 | 0.39 | 50 | 1011.3 |
| 20260504214713 | 75 | 210 | 2.0 | 2.0 | 0.00 | 0.39 | 0.39 | 49 | 1011.3 |
| 20260504214210 | 76 | 179 | 3.0 | 3.0 | 0.00 | 0.39 | 0.39 | 48 | 1011.6 |
| 20260504213706 | 75 | 240 | 2.0 | 2.0 | 0.00 | 0.39 | 0.39 | 50 | 1011.6 |
| 20260504213203 | 76 | 234 | 2.0 | 2.0 | 0.00 | 0.39 | 0.39 | 51 | 1011.6 |
| 20260504212700 | 76 | 188 | 3.0 | 3.0 | 0.00 | 0.39 | 0.39 | 49 | 1011.3 |
| 20260504212156 | 77 | 150 | 3.0 | 3.0 | 0.00 | 0.39 | 0.39 | 52 | 1011.3 |
| 20260504211654 | 77 | 216 | 2.0 | 2.0 | 0.00 | 0.39 | 0.39 | 48 | 1011.3 |
| 20260504211150 | 78 | 258 | 3.0 | 3.0 | 0.00 | 0.39 | 0.39 | 49 | 1011.3 |
| 20260504210648 | 77 | 205 | 2.0 | 2.0 | 0.00 | 0.39 | 0.39 | 46 | 1011.3 |
| 20260504210144 | 78 | 216 | 2.0 | 2.0 | 0.00 | 0.39 | 0.39 | 47 | 1011.3 |
| 20260504205642 | 78 | 198 | 3.0 | 3.0 | 0.00 | 0.39 | 0.39 | 46 | 1011.6 |
| 20260504205139 | 78 | 222 | 4.0 | 4.0 | 0.00 | 0.39 | 0.39 | 46 | 1011.6 |
| 20260504204637 | 79 | 290 | 3.0 | 3.0 | 0.00 | 0.39 | 0.39 | 45 | 1011.6 |
| 20260504204136 | 79 | 192 | 1.0 | 1.0 | 0.00 | 0.39 | 0.39 | 47 | 1011.6 |
| 20260504203634 | 78 | 204 | 2.0 | 2.0 | 0.00 | 0.39 | 0.39 | 46 | 1011.6 |
| 20260504203131 | 78 | 234 | 2.0 | 2.0 | 0.00 | 0.39 | 0.39 | 49 | 1011.6 |
| 20260504202626 | 78 | 198 | 2.0 | 2.0 | 0.00 | 0.39 | 0.39 | 47 | 1011.6 |
| 20260504202123 | 78 | 258 | 2.0 | 2.0 | 0.00 | 0.39 | 0.39 | 48 | 1011.6 |
| 20260504201620 | 78 | 234 | 2.0 | 2.0 | 0.00 | 0.39 | 0.39 | 49 | 1011.6 |
| 20260504201118 | 77 | 210 | 4.0 | 4.0 | 0.00 | 0.39 | 0.39 | 47 | 1011.6 |
| 20260504200615 | 77 | 216 | 3.0 | 3.0 | 0.00 | 0.39 | 0.39 | 51 | 1011.6 |
| 20260504200111 | 77 | 234 | 3.0 | 3.0 | 0.00 | 0.39 | 0.39 | 50 | 1011.6 |
| 20260504195607 | 78 | 187 | 2.0 | 2.0 | 0.00 | 0.39 | 0.39 | 49 | 1012.1 |
| 20260504195103 | 77 | 222 | 3.0 | 3.0 | 0.00 | 0.39 | 0.39 | 50 | 1012.1 |
| 20260504194600 | 77 | 198 | 2.0 | 2.0 | 0.00 | 0.39 | 0.39 | 52 | 1012.8 |
| 20260504194055 | 76 | 210 | 2.0 | 2.0 | 0.00 | 0.39 | 0.39 | 52 | 1012.8 |
| 20260504193552 | 76 | 198 | 3.0 | 3.0 | 0.00 | 0.39 | 0.39 | 48 | 1012.8 |
| 20260504193051 | 77 | 246 | 2.0 | 2.0 | 0.00 | 0.39 | 0.39 | 52 | 1012.8 |
| 20260504192549 | 76 | 18 | 2.0 | 2.0 | 0.00 | 0.39 | 0.39 | 50 | 1012.8 |
| 20260504192047 | 76 | 252 | 2.0 | 2.0 | 0.00 | 0.39 | 0.39 | 54 | 1012.8 |
| 20260504191544 | 75 | 222 | 2.0 | 2.0 | 0.00 | 0.39 | 0.39 | 56 | 1012.4 |
| 20260504191040 | 76 | 186 | 2.0 | 2.0 | 0.00 | 0.39 | 0.39 | 52 | 1012.4 |
| 20260504190537 | 76 | 180 | 3.0 | 3.0 | 0.00 | 0.39 | 0.39 | 51 | 1012.4 |
| 20260504190033 | 76 | 192 | 2.0 | 2.0 | 0.00 | 0.39 | 0.39 | 53 | 1012.8 |
| 20260504185530 | 76 | 270 | 2.0 | 2.0 | 0.00 | 0.39 | 0.39 | 55 | 1012.8 |
| 20260504185027 | 76 | 301 | 2.0 | 2.0 | 0.00 | 0.39 | 0.39 | 53 | 1012.8 |
| 20260504184522 | 75 | 228 | 2.0 | 2.0 | 0.00 | 0.39 | 0.39 | 55 | 1012.8 |
| 20260504184018 | 75 | 264 | 2.0 | 2.0 | 0.00 | 0.39 | 0.39 | 53 | 1012.8 |
| 20260504183515 | 75 | 166 | 2.0 | 2.0 | 0.00 | 0.39 | 0.39 | 54 | 1012.8 |
| 20260504183013 | 75 | 330 | 3.0 | 3.0 | 0.00 | 0.39 | 0.39 | 55 | 1012.8 |
| 20260504182509 | 74 | 36 | 3.0 | 3.0 | 0.00 | 0.39 | 0.39 | 53 | 1012.8 |
| 20260504182007 | 74 | 290 | 3.0 | 3.0 | 0.00 | 0.39 | 0.39 | 56 | 1012.8 |
| 20260504181504 | 74 | 246 | 2.0 | 2.0 | 0.00 | 0.39 | 0.39 | 55 | 1013.1 |
| 20260504181003 | 74 | 228 | 2.0 | 2.0 | 0.00 | 0.39 | 0.39 | 55 | 1013.1 |
| 20260504180501 | 73 | 216 | 2.0 | 2.0 | 0.00 | 0.39 | 0.39 | 57 | 1013.1 |
| 20260504175959 | 73 | 204 | 2.0 | 2.0 | 0.00 | 0.39 | 0.39 | 55 | 1012.8 |
| 20260504175456 | 73 | 78 | 2.0 | 2.0 | 0.00 | 0.39 | 0.39 | 57 | 1012.8 |
| 20260504174953 | 72 | 240 | 2.0 | 2.0 | 0.00 | 0.39 | 0.39 | 57 | 1012.8 |
| 20260504174450 | 73 | 234 | 2.0 | 2.0 | 0.00 | 0.39 | 0.39 | 57 | 1013.1 |
| 20260504173948 | 72 | 275 | 2.0 | 2.0 | 0.00 | 0.39 | 0.39 | 59 | 1013.1 |
| 20260504173444 | 72 | 192 | 2.0 | 2.0 | 0.00 | 0.39 | 0.39 | 58 | 1013.1 |
| 20260504172942 | 72 | 210 | 3.0 | 3.0 | 0.00 | 0.39 | 0.39 | 56 | 1013.1 |
| 20260504172437 | 72 | 168 | 3.0 | 3.0 | 0.00 | 0.39 | 0.39 | 58 | 1013.1 |
| 20260504171934 | 71 | 269 | 2.0 | 2.0 | 0.00 | 0.39 | 0.39 | 59 | 1013.1 |
| 20260504171432 | 71 | 306 | 2.0 | 2.0 | 0.00 | 0.39 | 0.39 | 56 | 1013.4 |
| 20260504170928 | 71 | 264 | 2.0 | 2.0 | 0.00 | 0.39 | 0.39 | 59 | 1013.4 |
| 20260504170425 | 70 | 300 | 2.0 | 2.0 | 0.00 | 0.39 | 0.39 | 57 | 1013.4 |
| 20260504160344 | 67 | 270 | 3.0 | 3.0 | 0.00 | 0.39 | 0.39 | 65 | 1013.8 |
| 20260504150808 | 58 | 180 | 2.0 | 2.0 | 0.00 | 0.39 | 0.39 | 85 | 1013.8 |
| 20260504150305 | 56 | 210 | 2.0 | 2.0 | 0.00 | 0.39 | 0.39 | 86 | 1013.8 |
| 20260504141235 | 54 | 246 | 2.0 | 2.0 | 0.00 | 0.38 | 0.38 | 90 | 1013.8 |
| 20260504140731 | 55 | 330 | 2.0 | 2.0 | 0.00 | 0.38 | 0.38 | 90 | 1013.8 |
| 20260504140227 | 55 | 216 | 2.0 | 2.0 | 0.00 | 0.38 | 0.38 | 87 | 1013.8 |
| 20260504130655 | 53 | 309 | 2.0 | 2.0 | 0.00 | 0.32 | 0.32 | 89 | 1015.1 |
| 20260504130152 | 52 | 100 | 2.0 | 2.0 | 0.00 | 0.32 | 0.32 | 89 | 1015.1 |